Other Public Products
Issued by NWS Grand Forks, ND

Home | Current Version | Previous Version | Text Only | Print | Product List | Glossary On
Versions: 1 2 3 4 5 6 7 8 9 10 11 12 13 14 15 16 17 18 19 20 21 22 23 24 25 26 27 28 29 30 31 32 33 34 35 36 37 38 39 40 41 42 43 44 45 46 47 48 49 50
000
FPUS83 KFGF 291331
OPUFGF
PRAIRIE TO PINES WEATHER ROUNDUP
NATIONAL WEATHER SERVICE EASTERN NORTH DAKOTA/GRAND FORKS ND
800 AM CDT TUE JUL 29 2014

 **SATELLITE DATA USED TO AUGMENT SKY COVER AT AUTOMATED STATIONS**
 *****  WEATHER ACROSS EASTERN NORTH DAKOTA  *****

CITY           SKY/WX    TMP DP  RH WIND       PRES   REMARKS
GRAND FORKS    MOSUNNY   59  56  89 W5        30.18R
GRAND FORKS AF SUNNY     61  60  96 W6        30.19R
GRAND CITY NWS   N/A     61 N/A N/A NW5         N/A
BUXTON           N/A     63  62  97 W3          N/A
DEVILS LAKE    SUNNY     63  55  77 NW6       30.20S
FARGO          SUNNY     58  53  84 CALM      30.19R
WAHPETON ARPT  SUNNY     55  52  88 NW3       30.20S
$$

 *****  WEATHER ACROSS CENTRAL AND WESTERN NORTH DAKOTA  *****

CITY           SKY/WX    TMP DP  RH WIND       PRES   REMARKS
JAMESTOWN      SUNNY     59  55  87 NW6       30.21S
BISMARCK       SUNNY     54  51  90 CALM      30.24S FOG
MINOT          SUNNY     61  55  81 CALM      30.21R
MINOT AFB      SUNNY     60  59  96 CALM      30.21R
GARRISON         N/A     62  59  90 CALM      30.22S
WILLISTON      SUNNY     62  53  72 CALM      30.21R
DICKINSON      SUNNY     56  52  86 CALM      30.22S
HETTINGER      SUNNY     55  50  83 CALM      30.26R
$$

 *****  OTHER OBSERVATIONS NORTHEAST NORTH DAKOTA  *****

CITY           SKY/WX    TMP DP  RH WIND       PRES   REMARKS
WALHALLA         N/A    N/A N/A N/A CALM        N/A
LANGDON        PTSUNNY   55  52  88 NW5       30.21S
CAVALIER       FAIR      61  57  88 CALM      30.18S
GRAFTON        FAIR      61  55  82 NW5       30.18R
CANDO          FAIR      59  55  88 CALM      30.22S
FORT TOTTEN    NOT AVBL
ROLLA          FAIR      63  59  88 NW3       30.23S
RUGBY          FAIR      57  57 100 CALM      30.21S
 ***** THE ABOVE OBSERVATIONS ARE NON NWS ARE NOT QUALITY
        CONTROLLED AND MAY MIS-REPORT RAIN FOR SNOW...
$$

 *****  OTHER OBSERVATIONS SOUTHEAST NORTH DAKOTA *****

CITY           SKY/WX    TMP DP  RH WIND       PRES   REMARKS
COOPERSTOWN    NOT AVBL
VALLEY CITY    FAIR      59  57  94 NW7       30.21S
OAKES          NOT AVBL
GWINNER        SUNNY     63  57  82 W6        30.22S
SHEYENNE NWR     N/A     57  53  88 NW3       29.95
BUFFALO        NOT AVBL
WYNDMERE       NOT AVBL
 ***** THE ABOVE OBSERVATIONS ARE NON NWS ARE NOT QUALITY
       CONTROLLED AND MAY MIS-REPORT RAIN FOR SNOW...
$$

  *****  WEATHER ACROSS NORTHERN MINNESOTA  *****

CITY           SKY/WX    TMP DP  RH WIND       PRES   REMARKS
FLAG ISLAND    SUNNY     63  55  77 NW10      30.11S
WARROAD        SUNNY     59  55  88 W6        30.15S
ROSEAU         SUNNY     61  55  82 NW5       30.15F
HALLOCK        SUNNY     59  55  88 NW3       30.17S
THF RVR FALLS  MOSUNNY   61  54  77 NW7       30.17S
HALSTAD          N/A     62  55  79 NW2         N/A
FOSSTON        SUNNY     57  55  94 CALM      30.19R
BAUDETTE       SUNNY     61  56  83 NW6       30.14R
WASKISH        SUNNY     63  57  82 NW5       30.14S
CROOKSTON      SUNNY     59  55  88 NW5         N/A
$$
  *****  WEATHER ACROSS CENTRAL AND WEST MINNESOTA  *****

CITY           SKY/WX    TMP DP  RH WIND       PRES   REMARKS
BEMIDJI        SUNNY     61  55  82 NW9       30.16S
PARK RAPIDS    SUNNY     57  55  93 NW6       30.17R
WADENA         SUNNY     59  55  88 NW7       30.18R
DETROIT LAKES  SUNNY     61  55  82 NW6       30.20S
MOORHEAD       SUNNY     59  57  94 CALM      30.20S
FERGUS FALLS   SUNNY     61  54  77 NW3       30.20S
ELBOW LAKE     FAIR      58  56  94 NW3       30.19S
MORRIS MN      SUNNY     59  55  88 NW7       30.19R
STAPLES        SUNNY     59  55  88 W5        30.17S
WHEATON        SUNNY     59  54  82 W5        30.22R
$$
  *****  WEATHER ELSEWHERE ACROSS MINNESOTA  *****

CITY           SKY/WX    TMP DP  RH WIND       PRES   REMARKS
DULUTH         MOSUNNY   62  54  74 NW8       30.08R
INTRNTL FALLS  PTSUNNY   60  57  89 W6        30.09S
ELY            MOSUNNY   61  55  82 NW6       30.07S
CLOQUET        MOSUNNY   61  55  82 W6        30.10R
BRAINERD       SUNNY     61  55  81 NW7       30.15S
HIBBING        PTSUNNY   63  57  81 NW9       30.10S
ALEXANDRIA     SUNNY     63  55  75 NW7       30.20R
SAINT CLOUD    SUNNY     63  55  75 NW6       30.15S
MINNEAPOLIS    MOSUNNY   65  56  72 NW6       30.14R
$$

  *****  WEATHER ACROSS SOUTH DAKOTA  *****

CITY           SKY/WX    TMP DP  RH WIND       PRES   REMARKS
SIOUX FALLS    MOSUNNY   57  53  86 CALM      30.23R
BROOKINGS      NOT AVBL
WATERTOWN      SUNNY     56  54  93 CALM      30.22S
HURON          PTSUNNY   58  54  86 CALM      30.23R
SISSETON         N/A     61  57  87 N5        30.20R
ABERDEEN       SUNNY     57  51  80 CALM      30.23S
MITCHELL       SUNNY     56  53  90 CALM      30.24R
PIERRE         SUNNY     56  54  93 SW5       30.23R
MOBRIDGE       SUNNY     59  55  87 CALM      30.22R
RAPID CITY     PTSUNNY   61  54  77 CALM      30.27S
$$

  *****  SOME WEATHER IN NEARBY STATES *****

CITY           SKY/WX    TMP DP  RH WIND       PRES   REMARKS
GLASGOW MT     MOSUNNY   64  50  60 E5        30.20S
GREAT FALLS MT PTCLDY    64  52  63 SW5       30.20R
CHEYENNE WY    MOSUNNY   59  52  77 NW5       30.31R
SCOTTSBLUFF NE CLOUDY    61  58  90 E8        30.25R
OMAHA NE       MOSUNNY   62  57  83 N6        30.21S
DES MOINES IA  MOSUNNY   62  55  77 NW5       30.16R
DAVENPORT IA   SUNNY     59  55  87 W6        30.12S FOG
CHICAGO IL     MOSUNNY   65  52  62 W8        30.04S
EAU CLAIRE WI  SUNNY     60  57  89 MISG      30.10R
LA CROSSE WI   SUNNY     62  57  83 CALM      30.10R
$$

  *****  SOME NATIONAL WEATHER *****

CITY           SKY/WX    TMP DP  RH WIND       PRES   REMARKS
LA GUARDIA NY  MOSUNNY   67  54  63 NW10      29.85R
RALEIGH NC     PTSUNNY   69  58  67 NE7       29.97R
ATLANTA GA     SUNNY     71  62  73 NW9       30.01R
NEW ORLEANS LA CLOUDY    81  69  67 NE10      30.06R
OKLAHOMA CITY  PTSUNNY   76  64  66 CALM      30.17R
ALBUQUERQUE NM PTCLDY    67  61  81 CALM      30.32R
SALT LAKE CITY CLOUDY    68  64  87 S5        30.18R
LOS ANGELES CA PTCLDY    67  63  87 VRB3      30.02S
BOISE ID       MOCLDY    74  51  44 CALM      30.09R
SEATTLE WA     CLEAR     61  52  72 CALM      30.13R
$$

*** WEATHER ACROSS MANITOBA...SASKATCHEWAN AND ONTARIO ***
                ***ONTARIO***

CITY           SKY/WX    TMP DP  RH WIND       PRES   REMARKS
GERALDTON      MOSUNNY   55  55 100 NW6       29.97S
THUNDER BAY    CLOUDY    59  57  94 SW6       30.00S
SIOUX LOOKOUT  CLOUDY    59  55  88 NW7       30.03F
TORONTO        PTSUNNY   63  52  67 NW5       29.93R
BIG TROUT LK   SUNNY     50  48  93 NE5       30.11R
PICKLE LAKE    PTSUNNY   59  54  82 E8        30.05R
DRYDEN         CLOUDY    57  54  88 W8        30.06S
KENORA         PTSUNNY   61  54  77 NW7       30.11S
$$
                *** MANITOBA***

CITY           SKY/WX    TMP DP  RH WIND       PRES   REMARKS
BRANDON        MOSUNNY   57  54  88 W6        30.22R
DAUPHIN        SUNNY     59  54  82 W8        30.19R
ISLAND LAKE    PTSUNNY   64  57  77 N2        30.09R
PILOT MOUND      N/A     55  54  94 W2          N/A
THE PAS        SUNNY     63  61  94 CALM      30.16S
THOMPSON       MOSUNNY   61  57  88 E3        30.11R
WINNIPEG       MOSUNNY   59  57  94 W6        30.17S
LYNN LAKE      SUNNY     63  59  88 CALM      30.13S
CHURCHILL      MOSUNNY   50  48  93 SE5       30.19F
GILLAM         FOG       48  48 100 NE3       30.15R VSB 1/4
$$
                ***SASKATCHEWAN***

CITY           SKY/WX    TMP DP  RH WIND       PRES   REMARKS
ESTEVAN        MOSUNNY   61  59  94 CALM      30.22S
KINDERSLEY     MOSUNNY   61  55  82 SE7       30.22R
LLOYDMINSTER   MOSUNNY   57  55  94 SE3       30.21R
PRINCE ALBERT  FOG       61  61 100 CALM      30.21S VSB 1
REGINA         SUNNY     59  57  94 CALM      30.23S


USA.gov is the U.S. government's official web portal to all federal, state and local government web resources and services.